• In Austria
  • List of Countries
  • For 7 days
  • Water Temperature
  • Satellite Maps
  • Weather Map
  • News
  • Weather Widgets
  • user-avatar
    Login

    Hourly Weather Pernik

    Today, 18 December, Monday

    Time Temperature Precipitation Wind Pressure Humidity
    00:00 -2°C° 0 mm 1 mps 688 mmHg 92%
    01:00 -3°C° 0 mm 1 mps 688 mmHg 92%
    02:00 -3°C° 0 mm 1 mps 689 mmHg 92%
    03:00 -3°C° 0 mm 1 mps 689 mmHg 91%
    04:00 -4°C° 0 mm 1 mps 689 mmHg 91%
    05:00 -4°C° 0 mm 1 mps 689 mmHg 90%
    06:00 -4°C° 0 mm 1 mps 689 mmHg 90%
    07:00 -4°C° 0 mm 1 mps 689 mmHg 90%
    08:00 -4°C° 0 mm 1 mps 689 mmHg 89%
    09:00 -3°C° 0.1 mm 1 mps 689 mmHg 87%
    10:00 -2°C° 0.1 mm 1 mps 690 mmHg 85%
    11:00 -1°C° 0.1 mm 1 mps 690 mmHg 82%
    12:00 0°C° 0.1 mm 1 mps 690 mmHg 82%
    13:00 0°C° 0.1 mm 1 mps 690 mmHg 82%
    14:00 -2°C° 0.1 mm 2 mps 690 mmHg 82%
    15:00 0°C° 0 mm 1 mps 690 mmHg 84%
    16:00 -1°C° 0 mm 1 mps 690 mmHg 87%
    17:00 -2°C° 0 mm 1 mps 690 mmHg 89%
    18:00 -2°C° 0 mm 1 mps 690 mmHg 90%
    19:00 -5°C° 0 mm 2 mps 690 mmHg 90%
    20:00 -5°C° 0 mm 2 mps 690 mmHg 91%
    21:00 -5°C° 0 mm 2 mps 691 mmHg 91%
    22:00 -5°C° 0 mm 2 mps 691 mmHg 90%
    23:00 -5°C° 0 mm 2 mps 691 mmHg 90%

    Tomorrow, 19 December, Tuesday

    Time Temperature Precipitation Wind Pressure Humidity
    00:00 -6°C° 0.1 mm 2 mps 692 mmHg 89%
    01:00 -6°C° 0.1 mm 2 mps 692 mmHg 89%
    02:00 -6°C° 0.1 mm 2 mps 692 mmHg 89%
    03:00 -4°C° 0 mm 1 mps 692 mmHg 89%
    04:00 -4°C° 0 mm 1 mps 692 mmHg 89%
    05:00 -4°C° 0 mm 1 mps 693 mmHg 89%
    06:00 -4°C° 0 mm 1 mps 693 mmHg 89%
    07:00 -4°C° 0 mm 1 mps 694 mmHg 89%
    08:00 -4°C° 0 mm 1 mps 694 mmHg 89%
    09:00 -4°C° 0 mm 1 mps 695 mmHg 86%
    10:00 -3°C° 0 mm 1 mps 695 mmHg 82%
    11:00 -4°C° 0 mm 2 mps 696 mmHg 79%
    12:00 -4°C° 0 mm 2 mps 696 mmHg 78%
    13:00 -3°C° 0 mm 2 mps 696 mmHg 77%
    14:00 -3°C° 0 mm 2 mps 696 mmHg 76%
    15:00 -4°C° 0 mm 2 mps 696 mmHg 80%
    16:00 -4°C° 0 mm 2 mps 696 mmHg 83%
    17:00 -3°C° 0 mm 1 mps 696 mmHg 87%
    18:00 -4°C° 0 mm 1 mps 696 mmHg 88%
    19:00 -4°C° 0 mm 1 mps 696 mmHg 89%
    20:00 -4°C° 0 mm 1 mps 697 mmHg 90%
    21:00 -6°C° 0 mm 1 mps 697 mmHg 90%
    22:00 -6°C° 0 mm 1 mps 697 mmHg 90%
    23:00 -6°C° 0 mm 1 mps 697 mmHg 90%

    Day after tomorrow, 20 December, Wednesday

    Time Temperature Precipitation Wind Pressure Humidity
    00:00 -6°C° 0 mm 1 mps 697 mmHg 90%
    01:00 -7°C° 0 mm 1 mps 697 mmHg 90%
    02:00 -7°C° 0 mm 1 mps 697 mmHg 90%
    03:00 -7°C° 0 mm 1 mps 697 mmHg 90%
    04:00 -8°C° 0 mm 1 mps 697 mmHg 90%
    05:00 -8°C° 0 mm 1 mps 697 mmHg 90%
    06:00 -8°C° 0 mm 1 mps 697 mmHg 89%
    07:00 -8°C° 0 mm 1 mps 697 mmHg 89%
    08:00 -9°C° 0 mm 1 mps 697 mmHg 89%
    09:00 -7°C° 0 mm 1 mps 698 mmHg 85%
    10:00 -6°C° 0 mm 1 mps 698 mmHg 81%
    11:00 -3°C° 0 mm 1 mps 698 mmHg 77%
    12:00 -3°C° 0 mm 1 mps 698 mmHg 76%
    13:00 -2°C° 0 mm 1 mps 698 mmHg 74%
    14:00 -2°C° 0 mm 1 mps 697 mmHg 73%
    15:00 -3°C° 0 mm 1 mps 697 mmHg 77%
    16:00 -4°C° 0 mm 1 mps 697 mmHg 81%
    17:00 -6°C° 0 mm 1 mps 697 mmHg 85%
    18:00 -7°C° 0 mm 1 mps 697 mmHg 85%
    19:00 -7°C° 0 mm 1 mps 697 mmHg 86%
    20:00 -8°C° 0 mm 1 mps 697 mmHg 87%
    21:00 -8°C° 0 mm 1 mps 697 mmHg 86%
    22:00 -8°C° 0 mm 1 mps 697 mmHg 84%
    23:00 -9°C° 0 mm 1 mps 697 mmHg 83%

    21 December, Thursday

    Time Temperature Precipitation Wind Pressure Humidity
    00:00 -9°C° 0 mm 1 mps 697 mmHg 82%
    01:00 -9°C° 0 mm 1 mps 697 mmHg 81%
    02:00 -9°C° 0 mm 1 mps 697 mmHg 80%
    03:00 -9°C° 0 mm 1 mps 697 mmHg 79%
    04:00 -9°C° 0 mm 1 mps 697 mmHg 78%
    05:00 -10°C° 0 mm 1 mps 697 mmHg 77%
    06:00 -10°C° 0 mm 1 mps 697 mmHg 76%
    07:00 -10°C° 0 mm 1 mps 697 mmHg 76%
    08:00 -10°C° 0 mm 1 mps 698 mmHg 75%
    09:00 -8°C° 0 mm 1 mps 698 mmHg 72%
    10:00 -6°C° 0 mm 1 mps 699 mmHg 69%
    11:00 -4°C° 0 mm 1 mps 699 mmHg 66%
    12:00 -3°C° 0 mm 1 mps 699 mmHg 65%
    13:00 -2°C° 0 mm 1 mps 698 mmHg 65%
    14:00 -2°C° 0 mm 1 mps 698 mmHg 64%
    15:00 -3°C° 0 mm 1 mps 698 mmHg 69%
    16:00 -4°C° 0 mm 1 mps 698 mmHg 74%
    17:00 -7°C° 0 mm 1 mps 697 mmHg 79%
    18:00 -7°C° 0 mm 1 mps 697 mmHg 79%
    19:00 -8°C° 0 mm 1 mps 698 mmHg 80%
    20:00 -8°C° 0 mm 1 mps 698 mmHg 80%
    21:00 -8°C° 0 mm 1 mps 698 mmHg 80%
    22:00 -8°C° 0 mm 1 mps 698 mmHg 79%
    23:00 -8°C° 0 mm 1 mps 698 mmHg 78%

    22 December, Friday

    Time Temperature Precipitation Wind Pressure Humidity
    00:00 -8°C° 0 mm 1 mps 697 mmHg 78%
    01:00 -8°C° 0 mm 1 mps 697 mmHg 78%
    02:00 -8°C° 0 mm 1 mps 697 mmHg 78%
    03:00 -8°C° 0 mm 1 mps 697 mmHg 77%
    04:00 -8°C° 0 mm 1 mps 696 mmHg 76%
    05:00 -8°C° 0 mm 1 mps 696 mmHg 76%
    06:00 -7°C° 0 mm 1 mps 696 mmHg 75%
    07:00 -7°C° 0 mm 1 mps 696 mmHg 74%
    08:00 -7°C° 0 mm 1 mps 696 mmHg 73%
    09:00 -4°C° 0 mm 1 mps 696 mmHg 71%
    10:00 -2°C° 0 mm 1 mps 696 mmHg 69%
    11:00 0°C° 0 mm 1 mps 696 mmHg 67%
    12:00 +1°C° 0 mm 1 mps 696 mmHg 70%
    13:00 +2°C° 0 mm 1 mps 695 mmHg 73%
    14:00 +2°C° 0 mm 2 mps 695 mmHg 75%
    15:00 +1°C° 0.1 mm 2 mps 695 mmHg 78%
    16:00 +1°C° 0.1 mm 2 mps 695 mmHg 82%
    17:00 +1°C° 0.1 mm 1 mps 695 mmHg 85%
    18:00 -1°C° 0 mm 2 mps 695 mmHg 86%
    19:00 -1°C° 0 mm 2 mps 695 mmHg 87%
    20:00 -1°C° 0 mm 3 mps 695 mmHg 88%
    21:00 -1°C° 0 mm 3 mps 695 mmHg 88%
    22:00 -1°C° 0 mm 3 mps 695 mmHg 88%
    23:00 -2°C° 0 mm 3 mps 696 mmHg 89%

    23 December, Saturday

    Time Temperature Precipitation Wind Pressure Humidity
    00:00 -2°C° 0 mm 2 mps 695 mmHg 89%
    01:00 -3°C° 0 mm 2 mps 695 mmHg 89%
    02:00 -4°C° 0 mm 2 mps 695 mmHg 90%
    03:00 -4°C° 0 mm 2 mps 695 mmHg 90%
    04:00 -5°C° 0 mm 2 mps 694 mmHg 89%
    05:00 -5°C° 0 mm 2 mps 694 mmHg 89%
    06:00 -5°C° 0 mm 2 mps 694 mmHg 89%
    07:00 -6°C° 0 mm 2 mps 694 mmHg 88%
    08:00 -4°C° 0 mm 1 mps 693 mmHg 88%
    09:00 -3°C° 0 mm 1 mps 693 mmHg 83%
    10:00 -4°C° 0 mm 2 mps 693 mmHg 79%
    11:00 -2°C° 0 mm 2 mps 693 mmHg 75%
    12:00 -2°C° 0 mm 2 mps 692 mmHg 72%
    13:00 -1°C° 0 mm 2 mps 691 mmHg 70%
    14:00 +1°C° 0 mm 2 mps 691 mmHg 68%
    15:00 -1°C° 0 mm 2 mps 690 mmHg 71%
    16:00 -2°C° 0 mm 2 mps 690 mmHg 74%
    17:00 -1°C° 0 mm 1 mps 689 mmHg 77%
    18:00 -3°C° 0 mm 2 mps 689 mmHg 78%
    19:00 -3°C° 0 mm 2 mps 689 mmHg 79%
    20:00 -3°C° 0 mm 2 mps 689 mmHg 80%
    21:00 -3°C° 0.1 mm 2 mps 689 mmHg 82%
    22:00 -3°C° 0.1 mm 2 mps 689 mmHg 84%
    23:00 -4°C° 0.1 mm 3 mps 689 mmHg 85%
    Show more